Zurück zum Katalog

ERS 2 DEB

AktivSSO
NORAD 35391·DEBRIS·🇪🇺 EU

Gestartet Apr 21, 1995 von Guiana Space Centre

Loading…

Nächste Überflüge (nächste 24 Stunden)

TLE

AktuellSource: Space-Track

Epoche: Sep 14, 2026, 10:38 UTC

1 35391U 95021E   26257.44332112  .00001413  00000-0  38133-3 0  9990
2 35391  98.6236 242.6735 0004428 191.7887 321.4072 14.49449254 10517

Verfolge ERS 2 DEB in Echtzeit mit AllMySat

Download on the App Store